Weather History for Wolf Creek Pass, CO

Change the Weather History Date:

Friday, September 13, 2013

  Actual Average (KALS) Record (KALS)
Temperature  
Mean Temperature 40 °F 56 °F  
Max Temperature 44 °F 74 °F 87 °F (1990)
Min Temperature 37 °F 38 °F 22 °F (1945)
Degree Days  
Heating Degree Days 24 9  
Month to date heating degree days 91  
Since 1 July heating degree days 220  
Cooling Degree Days 0 0  
Month to date cooling degree days 0  
Year to date cooling degree days 51  
Moisture  
Dew Point 40 °F    
Average Humidity 99    
Maximum Humidity 100    
Minimum Humidity 93    
Precipitation  
Precipitation 0.56 in 0.03 in 0.48 in (2013)
Month to date precipitation 0.46  
Year to date precipitation 5.41  
Snow  
Snow 0.00 in 0.00 in 0.00 in (2002)
Month to date snowfall 0.0  
Since 1 July snowfall 0.0  
Since 1 September snowfall 0.0  
Snow Depth -    
Sea Level Pressure  
Sea Level Pressure 30.46 in    
Wind  
Wind Speed 10 mph (SW)    
Max Wind Speed 22 mph    
Max Gust Speed 29 mph    
Visibility 3 miles    
Events Fog , Rain , Thunderstorm    
T = Trace of Precipitation, MM = Missing Value Source: NWS Daily Summary

Daily Weather History Graph

Daily Weather History Graph

Search for Another Location

Airport:

Trip Planner

Search our weather history database for the weather conditions in past years. The results will help you decide how hot, cold, wet, or windy it might be!

Date:

Astronomy

Sep. 13, 2013 Rise Set
Actual Time 6:47 AM MDT 7:17 PM MDT
Civil Twilight 6:21 AM MDT 7:43 PM MDT
Nautical Twilight 5:50 AM MDT 8:14 PM MDT
Astronomical Twilight 5:19 AM MDT 8:46 PM MDT
Moon 3:04 PM MDT (9/13) 12:25 AM MDT (9/13)
Length of Visible Light 13h 22m
Length of Day
12h 29m
Waxing Gibbous, 62% of the Moon is Illuminated
Sep 13
Waxing Gibbous
Sep 19
Full
Sep 26
Last Quarter
Oct 4
New
Oct 11
First Quarter

Hourly Weather History & Observations

Time (MDT) Temp. Windchill Dew Point Humidity Pressure Visibility Wind Dir Wind Speed Gust Speed Precip Events Conditions
12:02 AM 41.0 °F 35.2 °F 41.0 °F 100% 30.52 in 0.8 mi South 9.2 mph - N/A   Drizzle
12:22 AM 41.0 °F 37.1 °F 41.0 °F 100% 30.51 in 0.8 mi South 5.8 mph - 0.01 in   Heavy Drizzle
12:42 AM 41.0 °F 38.0 °F 41.0 °F 100% 30.50 in 0.2 mi SSW 4.6 mph - 0.07 in Rain Heavy Rain
1:02 AM 41.0 °F 33.1 °F 41.0 °F 100% 30.50 in 0.2 mi South 15.0 mph 19.6 mph N/A Rain Rain
1:21 AM 41.0 °F 35.8 °F 41.0 °F 100% 30.50 in 0.2 mi SSW 8.1 mph 17.3 mph 0.02 in Rain Rain
1:42 AM 41.0 °F 36.4 °F 41.0 °F 100% 30.49 in 0.2 mi SSW 6.9 mph 18.4 mph 0.05 in Rain Rain
2:02 AM 41.0 °F 34.3 °F 41.0 °F 100% 30.49 in 0.2 mi SSW 11.5 mph 16.1 mph 0.01 in Rain Rain
2:22 AM 41.0 °F 35.8 °F 41.0 °F 100% 30.49 in 0.5 mi SW 8.1 mph - 0.04 in Rain Rain
2:42 AM 39.2 °F 31.2 °F 39.2 °F 100% 30.49 in 1.5 mi WSW 13.8 mph 24.2 mph 0.14 in Rain Rain
3:02 AM 39.2 °F 29.6 °F 39.2 °F 100% 30.48 in 1.2 mi SW 19.6 mph 26.5 mph 0.01 in Rain Rain
3:22 AM 41.0 °F 33.9 °F 41.0 °F 100% 30.48 in 0.5 mi SW 12.7 mph 23.0 mph 0.13 in Rain Rain
3:42 AM 39.2 °F 31.2 °F 39.2 °F 100% 30.47 in 0.8 mi WSW 13.8 mph 25.3 mph 0.27 in Rain Rain
4:02 AM 39.2 °F 29.8 °F 39.2 °F 100% 30.47 in 0.5 mi SW 18.4 mph 28.8 mph 0.01 in Rain Rain
4:22 AM 39.2 °F 29.0 °F 39.2 °F 100% 30.46 in 0.5 mi SW 21.9 mph 28.8 mph 0.01 in   Heavy Drizzle
4:42 AM 39.2 °F 29.3 °F 39.2 °F 100% 30.47 in 0.5 mi SW 20.7 mph 28.8 mph 0.01 in Rain Light Rain
5:02 AM 39.2 °F 31.6 °F 39.2 °F 100% 30.47 in 0.5 mi SSW 12.7 mph 21.9 mph N/A   Heavy Drizzle
5:22 AM 39.2 °F 31.6 °F 39.2 °F 100% 30.47 in 0.5 mi WSW 12.7 mph 20.7 mph 0.02 in Rain Rain
5:42 AM 39.2 °F 31.6 °F 39.2 °F 100% 30.46 in 0.5 mi SSW 12.7 mph 18.4 mph 0.04 in Rain Heavy Rain
6:02 AM 39.2 °F 33.0 °F 39.2 °F 100% 30.46 in 0.5 mi SSW 9.2 mph 21.9 mph N/A   Heavy Drizzle
6:22 AM 39.2 °F 31.6 °F 39.2 °F 100% 30.46 in 0.5 mi SW 12.7 mph 19.6 mph 0.02 in Rain Rain
6:42 AM 39.2 °F 31.6 °F 39.2 °F 100% 30.46 in 0.5 mi SW 12.7 mph 17.3 mph 0.03 in Rain Heavy Rain
7:02 AM 39.2 °F 32.0 °F 39.2 °F 100% 30.46 in 0.5 mi WSW 11.5 mph 23.0 mph N/A   Unknown
7:22 AM 39.2 °F 33.6 °F 39.2 °F 100% 30.47 in 0.2 mi SSW 8.1 mph - 0.01 in Rain Heavy Rain
7:42 AM 39.2 °F 35.0 °F 39.2 °F 100% 30.47 in 0.2 mi SSW 5.8 mph - 0.02 in Rain Rain
8:02 AM 39.2 °F 34.2 °F 39.2 °F 100% 30.47 in 0.2 mi SW 6.9 mph - N/A   Heavy Drizzle
8:22 AM 39.2 °F 34.2 °F 39.2 °F 100% 30.46 in 0.2 mi SW 6.9 mph - N/A Rain Light Rain
8:42 AM 39.2 °F 33.6 °F 39.2 °F 100% 30.47 in 0.2 mi SW 8.1 mph - N/A Fog Fog
9:02 AM 39.2 °F 35.9 °F 39.2 °F 100% 30.47 in 0.2 mi SW 4.6 mph - N/A Fog Fog
9:22 AM 37.4 °F 34.9 °F 37.4 °F 100% 30.48 in 0.2 mi SSW 3.5 mph - N/A Fog Fog
9:42 AM 39.2 °F 35.0 °F 39.2 °F 100% 30.49 in 0.2 mi SSW 5.8 mph - N/A Fog Fog
10:02 AM 39.2 °F 35.0 °F 39.2 °F 100% 30.49 in 0.2 mi SSW 5.8 mph - N/A Fog Fog
10:22 AM 39.2 °F 35.9 °F 39.2 °F 100% 30.49 in 3.0 mi SW 4.6 mph - N/A   Overcast
10:42 AM 39.2 °F 37.0 °F 39.2 °F 100% 30.49 in 10.0 mi SW 3.5 mph - N/A   Scattered Clouds
11:02 AM 41.0 °F 36.4 °F 41.0 °F 100% 30.49 in 5.0 mi SW 6.9 mph - N/A   Mostly Cloudy
11:22 AM 41.0 °F 39.0 °F 41.0 °F 100% 30.49 in 10.0 mi SW 3.5 mph - N/A   Mostly Cloudy
11:42 AM 41.0 °F 37.1 °F 41.0 °F 100% 30.48 in 5.0 mi SW 5.8 mph - N/A   Mostly Cloudy
12:02 PM 41.0 °F 39.0 °F 41.0 °F 100% 30.48 in 10.0 mi SW 3.5 mph - N/A   Mostly Cloudy
12:22 PM 41.0 °F - 41.0 °F 100% 30.48 in 10.0 mi Calm Calm - N/A   Mostly Cloudy
12:42 PM 41.0 °F 37.1 °F 41.0 °F 100% 30.47 in 7.0 mi SSW 5.8 mph - N/A   Mostly Cloudy
1:02 PM 41.0 °F 38.0 °F 41.0 °F 100% 30.47 in 7.0 mi South 4.6 mph - N/A   Mostly Cloudy
1:22 PM 42.8 °F 38.0 °F 41.0 °F 93% 30.46 in 10.0 mi SSW 8.1 mph - N/A   Overcast
1:42 PM 42.8 °F 39.3 °F 41.0 °F 93% 30.46 in 10.0 mi SW 5.8 mph - N/A   Mostly Cloudy
2:02 PM 42.8 °F 38.6 °F 41.0 °F 93% 30.45 in 10.0 mi SW 6.9 mph - N/A   Mostly Cloudy
2:22 PM 42.8 °F 38.0 °F 41.0 °F 93% 30.44 in 10.0 mi SW 8.1 mph - N/A   Overcast
2:42 PM 42.8 °F 38.0 °F 42.8 °F 100% 30.44 in 3.0 mi SW 8.1 mph - N/A   Overcast
3:02 PM 44.6 °F 40.2 °F 42.8 °F 93% 30.44 in 10.0 mi WSW 8.1 mph - N/A   Overcast
3:22 PM 42.8 °F 37.5 °F 41.0 °F 93% 30.43 in 10.0 mi WSW 9.2 mph - N/A   Mostly Cloudy
3:42 PM 42.8 °F 38.6 °F 42.8 °F 100% 30.43 in 10.0 mi SW 6.9 mph - N/A   Overcast
4:02 PM 44.6 °F 41.4 °F 42.8 °F 93% 30.42 in 5.0 mi SW 5.8 mph - N/A   Mostly Cloudy
4:22 PM 44.6 °F 41.4 °F 42.8 °F 93% 30.42 in 10.0 mi SSW 5.8 mph - N/A   Mostly Cloudy
4:42 PM 44.6 °F 38.8 °F 42.8 °F 93% 30.41 in 10.0 mi SSW 11.5 mph 17.3 mph N/A   Overcast
5:02 PM 44.6 °F 38.4 °F 42.8 °F 93% 30.41 in 10.0 mi SW 12.7 mph - N/A   Overcast
5:22 PM 42.8 °F 36.6 °F 41.0 °F 93% 30.42 in 10.0 mi WSW 11.5 mph 16.1 mph N/A   Overcast
5:42 PM 42.8 °F 37.5 °F 41.0 °F 93% 30.42 in 10.0 mi SSW 9.2 mph - N/A Thunderstorm Overcast
6:02 PM 41.0 °F 35.2 °F 41.0 °F 100% 30.42 in 10.0 mi SW 9.2 mph - N/A   Overcast
6:22 PM 41.0 °F 36.4 °F 41.0 °F 100% 30.41 in 7.0 mi WSW 6.9 mph 16.1 mph N/A   Overcast
6:42 PM 41.0 °F 34.7 °F 41.0 °F 100% 30.41 in 0.2 mi WSW 10.4 mph 18.4 mph N/A Fog Fog
7:02 PM 41.0 °F 34.3 °F 41.0 °F 100% 30.40 in 1.8 mi WSW 11.5 mph 19.6 mph N/A   Overcast
7:22 PM 41.0 °F 32.8 °F 41.0 °F 100% 30.40 in 0.2 mi SW 16.1 mph - N/A Fog Fog
7:42 PM 41.0 °F 33.9 °F 41.0 °F 100% 30.40 in 0.2 mi SW 12.7 mph - N/A Fog Fog
8:02 PM 39.2 °F 33.6 °F 39.2 °F 100% 30.41 in 0.2 mi WSW 8.1 mph - N/A Fog Fog
8:22 PM 39.2 °F 30.8 °F 39.2 °F 100% 30.41 in 0.2 mi SW 15.0 mph - N/A Fog Fog
8:42 PM 39.2 °F 32.0 °F 39.2 °F 100% 30.42 in 0.5 mi SW 11.5 mph 20.7 mph N/A Fog Fog
9:02 PM 37.4 °F 29.3 °F 37.4 °F 100% 30.43 in 0.8 mi SW 12.7 mph 20.7 mph N/A   Overcast
9:22 PM 37.4 °F 28.9 °F 37.4 °F 100% 30.43 in 0.5 mi SW 13.8 mph 20.7 mph N/A Fog Fog
9:42 PM 37.4 °F 28.2 °F 37.4 °F 100% 30.43 in 3.0 mi SW 16.1 mph - N/A   Overcast
10:02 PM 37.4 °F 28.5 °F 37.4 °F 100% 30.44 in 10.0 mi SW 15.0 mph 18.4 mph N/A   Overcast
10:22 PM 39.2 °F 33.0 °F 39.2 °F 100% 30.44 in 0.2 mi SW 9.2 mph 19.6 mph N/A Fog Fog
10:42 PM 39.2 °F 32.0 °F 39.2 °F 100% 30.44 in 0.2 mi SSW 11.5 mph 19.6 mph N/A Thunderstorm Unknown
11:02 PM 37.4 °F 28.5 °F 37.4 °F 100% 30.43 in 0.2 mi SSW 15.0 mph 24.2 mph N/A Fog , Thunderstorm Fog
11:22 PM 37.4 °F 30.3 °F 37.4 °F 100% 30.43 in 0.2 mi SW 10.4 mph - N/A Rain , Thunderstorm Light Thunderstorms and Rain
11:42 PM 37.4 °F 34.9 °F 37.4 °F 100% 30.43 in 0.2 mi SSW 3.5 mph - N/A Rain Rain